Air Resources Laboratory banner image
Air Resources Laboratory web site National Oceanic and Atmospheric Administration (NOAA)

sc roundup


Office: CAE

ASUS42 KCAE 231910
RWRCAE
REGIONAL WEATHER ROUNDUP
NATIONAL WEATHER SERVICE COLUMBIA SC
300 PM EDT WED MAY 23 2018

NOTE: "FAIR" INDICATES FEW OR NO CLOUDS BELOW 12,000 FEET WITH NO
SIGNIFICANT WEATHER AND/OR OBSTRUCTIONS TO VISIBILITY.

NOT ALL STATIONS ARE QUALITY CONTROLLED BY THE NATIONAL
WEATHER SERVICE. USE DATA WITH CAUTION...ESPECIALLY
DEWPOINT OBSERVATIONS.

SCZ001>056-GAZ040-063>065-077-232000-
...UPSTATE SOUTH CAROLINA...

CITY           SKY/WX    TMP DP  RH WIND       PRES   REMARKS
ANDERSON       FAIR      81  70  69 SW6       30.07F
LIBERTY        FAIR      83  69  62 CALM      30.07F
SPARTANBURG    FAIR      82  64  54 SW6       30.06S
CLEMSON        FAIR      81  70  69 SE6       30.08F
GREENVILLE     FAIR      85  67  54 S8        30.08F
GREENWOOD      FAIR      82  69  64 CALM      30.08F
GREER          PTSUNNY   84  68  58 SW10      30.07F
ROCK HILL      FAIR      84  70  62 SW5       30.06F
CHESTER        FAIR      81  64  57 SW5       30.07F THUNDER
LAURENS        FAIR      84  68  58 S7        30.06F


...CENTRAL SOUTH CAROLINA...

CITY           SKY/WX    TMP DP  RH WIND       PRES   REMARKS
COLUMBIA APT   PTSUNNY   85  71  63 S7        30.05F
COLUMBIA OWENS FAIR      85  69  58 S10       30.06F
MCENTIRE ANGB  PTSUNNY   81  73  76 S7        30.07F
ORANGEBURG     FAIR      79  69  71 SW7       30.08F
SUMTER SHAW    PTSUNNY   76  71  83 S8        30.05F
NEWBERRY       MOCLDY    82  68  61 SW8       30.10S
AIKEN          LGT RAIN  79  70  73 SW3       30.11F
BARNWELL       FAIR      82  70  65 S7        30.07F
MANNING        FAIR      72  66  83 CALM      30.08F
CAMDEN         FAIR      82  70  65 MISG      30.06F
LANCASTER      MOCLDY    77  77 100 N3        30.06F THUNDER
WINNSBORO      FAIR      86  64  48 SW6       30.06F


...EASTERN AND COASTAL SOUTH CAROLINA...

CITY           SKY/WX    TMP DP  RH WIND       PRES   REMARKS
MYRTLE BEACH   RAIN      76  72  87 W3        30.09F
N MYRTLE BCH   FAIR      80  70  71 SW13      30.08S
CONWAY         FAIR      79  73  83 S5        30.08F
MARION         MOCLDY    81  70  69 CALM      30.05F
HARTSVILLE     FAIR      81  70  69 S9        30.04F
FLORENCE       FAIR      82  69  64 SW13      30.05F
DARLINGTON       N/A     86  69  56 SW12      30.04F
CHARLESTON APT PTSUNNY   85  72  65 SW13      30.06F
MOUNT PLEASANT FAIR      84  68  58 S12G20    30.07F
WALTERBORO     MOCLDY    86  68  54 S7        30.08S
BEAUFORT       FAIR      86  73  65 SE12      30.07


...EASTERN GEORGIA...

CITY           SKY/WX    TMP DP  RH WIND       PRES   REMARKS
AUGUSTA BUSH F PTSUNNY   79  74  84 CALM      30.06F
AUGUSTA DANIEL HVY RAIN  77  72  84 NW10G16   30.08S
THOMSON        CLOUDY    72  71  95 CALM      30.12F
CLAXTON        FAIR      86  70  59 S5        30.05F
SYLVANIA       LGT RAIN  78  73  84 NW3       30.08F
STATESBORO     FAIR      83  70  62 S3        30.06F
SAVANNAH       PTSUNNY   88  69  53 S8        30.06F


...SOUTHERN NORTH CAROLINA...

CITY           SKY/WX    TMP DP  RH WIND       PRES   REMARKS
CHARLOTTE      FAIR      87  68  52 W6        30.05F
MONROE         PTSUNNY   84  69  60 SW9       30.04F
WADESBORO      FAIR      87  67  51 SW7       30.03F
ROCKINGHAM     FAIR      86  69  56 W7G16     30.03F
RUTHERFORDTON  PTSUNNY   82  66  57 CALM      30.08F
ASHEVILLE      FAIR      84  58  40 N13       30.12F

$$




Office: CHS ASUS42 KCHS 231912 RWRCHS Regional Weather Roundup National Weather Service Charleston SC 300 PM EDT WED MAY 23 2018 NOTE: "fair" indicates few or no clouds below 12,000 feet with no significant weather and/or obstructions to visibility. Not all stations are quality controlled. Use data with caution, especially dewpoint observations. SCZ027-030-031-034>040-042>050-232000- ...Southeast South Carolina... CITY SKY/WX TMP DP RH WIND PRES REMARKS N Charleston PTSUNNY 85 72 65 SW13 30.06F HX 91 Waterfront Prk N/A 80 71 74 S12 29.92F Mount Pleasant FAIR 84 68 58 S12G20 30.07F Johns Island FAIR 84 66 54 S14G20 30.08F Pinopolis N/A 77 72 83 N10 30.01F Moncks Corner RAIN 73 72 94 N8 30.07F Summerville CLOUDY 79 70 73 N8 30.08S Beaufort MCAS FAIR 86 73 65 SE12 30.07F HX 93 Beaufort Arpt FAIR 82 70 65 S14 30.07F Hilton Head Is MOSUNNY 81 72 74 S10G20 30.09F Walterboro MOCLDY 86 68 54 S7 30.08S Allendale FAIR 79 73 83 SE3 30.07F ...Southern Midlands and Pee Dee... CITY SKY/WX TMP DP RH WIND PRES REMARKS Georgetown TSTM 72 72 100 W9 30.10S Kingstree LGT RAIN 72 70 94 CALM 30.07F Orangeburg FAIR 79 69 71 SW7 30.08F Barnwell FAIR 82 70 65 S7 30.07F Aiken LGT RAIN 79 70 73 SW3 30.11F Manning FAIR 72 66 83 CALM 30.08F Columbia PTSUNNY 85 71 63 S7 30.05F HX 90 Sumter PTSUNNY 76 71 83 S8 30.05F Florence FAIR 82 69 64 SW13 30.05F Myrtle Beach RAIN 76 72 87 W3 30.09F N Myrtle Beach FAIR 80 70 71 SW13 30.08S $$ GAZ063-065-086>088-099>101-113>116-118-119-134>141-150-232000- ...Southeast Georgia... CITY SKY/WX TMP DP RH WIND PRES REMARKS Savannah Arpt PTSUNNY 88 69 53 S8 30.06F HX 92 Hunter AAF FAIR 85 72 65 SE12 30.05F HX 90 Fort Stewart PTSUNNY 84 68 57 S8 30.04F Statesboro FAIR 83 70 62 S3 30.06F Sylvania LGT RAIN 78 73 84 NW3 30.08F Claxton FAIR 86 70 59 S5 30.05F HX 91 ...CSRA, Central and far Southeast Georgia... CITY SKY/WX TMP DP RH WIND PRES REMARKS Thomson CLOUDY 72 71 95 CALM 30.12F Augusta-Bush PTSUNNY 79 74 84 CALM 30.06F Augusta-Daniel HVY RAIN 77 72 84 NW10G16 30.08S Swainsboro MOCLDY 84 70 61 SE9 30.07F Vidalia FAIR 86 68 54 SW5 30.06F Eastman FAIR 80 68 65 CALM 30.09F Hazlehurst N/A 87 66 50 S8 30.05F Alma FAIR 85 71 63 SW6 30.06F HX 90 Waycross PTSUNNY 83 72 69 CALM 30.07F THUNDER Jesup LGT RAIN 81 72 74 CALM 30.07F Baxley PTSUNNY 82 70 65 SW6 30.06F Brunswick PTSUNNY 81 68 65 S7 30.09S Saint Simons FAIR 83 73 72 SE13G20 30.07F $$ SCZ027-028-034-036>038-045-046-048>050-GAZ119-141-232000- ...Lake and Supplemental Coastal Observations... STATION/POSITION TIME TEMP WIND PRES WAVE SWELL AIR SEA DIR/SP/G HT/PER HT/PER/DIR (UTC) (F) (DEG/KT/KT) (MB) (FT/S) (FT/S/D) Winyah Bay 1745 80 200/ 6 1019.0 Lake Murray NOT AVBL ACE Basin NERRS NOT AVBL Fort Pulaski 1842 81 78 170/ 7/ 10 1019.0F Sapelo Island 1800 85 160/ 12 1019.0 $$ ANZ835-935-AMZ111-154-330-350-352-354-370-450-454-472-232000- ...C-MAN and Buoy Observations... STATION/POSITION TIME TEMP WIND PRES WAVE SWELL AIR SEA DIR/SP/G HT/PER HT/PER/DIR (UTC) (F) (DEG/KT/KT) (MB) (FT/S) (FT/S/D) Buoy 41004 1850 76 220/ 8/ 10 1019.2F 3/ 8 3/140/ 8 Buoy 41008 1850 76 77 170/ 12/ 16 1018.5F 3/ 7 2/130/ 7 Folly Beach CMAN 1900 79 190/ 14/ 16 1019.3F Capers Nearshore 1808 77 77 220/ 16/ 19 1019.9F Fripp Nearshore 1808 77 79 200/ 10/ 16 1018.9F STATION/POSITION TIME TEMP WIND PRES WAVE SWELL AIR SEA DIR/SP/G HT/PER HT/PER/DIR (UTC) (F) (DEG/KT/KT) (MB) (FT/S) (FT/S/D) 5E St. Marys GA 1830 77 N/A 3/ 8 Frying Pan Buoy 1850 76 76 210/ 16/ 17 1018.9F 3/ 8 2/130/ 8 Buoy 41025 1900 76 74 230/ 17/ 19 1017.7 Cape Lookout NC 1800 220/ 16/ 21 1018.2F Buoy 41002 1850 78 220/ 8/ 12 1020.7F 3/ 8 3/140/ 8 Buoy 41010 1850 78 79 120/ 6/ 10 1020.3F 4/ 7 3/120/ 7 St Augustine FL 1900 77 80 120/ 12/ 13 1019.2F $$ ASUS42 KCHS 231927 RWRCHS Regional Weather Roundup National Weather Service Charleston SC 300 PM EDT WED MAY 23 2018 NOTE: "fair" indicates few or no clouds below 12,000 feet with no significant weather and/or obstructions to visibility. Not all stations are quality controlled. Use data with caution, especially dewpoint observations. SCZ027-030-031-034>040-042>050-232000- ...Southeast South Carolina... CITY SKY/WX TMP DP RH WIND PRES REMARKS N Charleston PTSUNNY 85 72 65 SW13 30.06F HX 91 Waterfront Prk N/A 80 71 74 S12 29.92F Mount Pleasant FAIR 84 66 54 S14 30.07F Johns Island FAIR 84 66 54 S12 30.07F Pinopolis N/A 77 72 83 N10 30.01F Moncks Corner MOCLDY 73 72 94 CALM 30.07S Summerville MOCLDY 79 70 73 N8 30.08S Beaufort MCAS FAIR 86 73 65 SE12 30.07F HX 93 Beaufort Arpt FAIR 82 70 65 S8 30.06F Hilton Head Is MOSUNNY 81 72 74 S10G20 30.09F Walterboro MOCLDY 79 70 73 CALM 30.08S Allendale FAIR 79 72 78 CALM 30.07S ...Southern Midlands and Pee Dee... CITY SKY/WX TMP DP RH WIND PRES REMARKS Georgetown TSTM 68 68 100 NW6 30.10R Kingstree FAIR 72 72 100 CALM 30.08S Orangeburg FAIR 79 69 71 SW7 30.08F Barnwell FAIR 81 70 69 SW6 30.07F Aiken MOCLDY 79 70 73 SE9 30.11S Manning FAIR 73 66 78 W3 30.08F Columbia PTSUNNY 85 71 63 S7 30.05F HX 90 Sumter PTSUNNY 76 71 83 S8 30.05F Florence FAIR 82 69 64 SW13 30.05F Myrtle Beach RAIN 76 72 87 W3 30.09F N Myrtle Beach FAIR 80 70 71 SW13 30.08S $$ GAZ063-065-086>088-099>101-113>116-118-119-134>141-150-232000- ...Southeast Georgia... CITY SKY/WX TMP DP RH WIND PRES REMARKS Savannah Arpt PTSUNNY 88 69 53 S8 30.06F HX 92 Hunter AAF FAIR 85 72 65 SE12 30.05F HX 90 Fort Stewart PTSUNNY 84 68 57 S8 30.04F Statesboro PTSUNNY 84 69 60 S7 30.05F Sylvania MOCLDY 79 74 84 N3 30.08F Claxton MOCLDY 86 71 59 S5 30.05F HX 91 ...CSRA, Central and far Southeast Georgia... CITY SKY/WX TMP DP RH WIND PRES REMARKS Thomson LGT RAIN 73 71 93 SE3 30.12F Augusta-Bush PTSUNNY 80 74 81 SE5 30.05F Augusta-Daniel TSTM 75 72 90 S10 30.08S VSB 1/2 Swainsboro MOCLDY 82 72 69 S5 30.06F Vidalia FAIR 86 68 54 S9 30.06F Eastman MOCLDY 80 66 61 CALM 30.09F Hazlehurst N/A 87 66 50 CALM 30.04F Alma FAIR 85 71 63 SW6 30.06F HX 90 Waycross CLOUDY 82 74 75 SE7 30.06F Jesup LGT RAIN 81 72 74 CALM 30.07F Baxley FAIR 82 68 61 S9 30.05F Brunswick RAIN 73 68 83 W10 30.10R Saint Simons FAIR 83 73 72 SE13G20 30.07F $$ SCZ027-028-034-036>038-045-046-048>050-GAZ119-141-232000- ...Lake and Supplemental Coastal Observations... STATION/POSITION TIME TEMP WIND PRES WAVE SWELL AIR SEA DIR/SP/G HT/PER HT/PER/DIR (UTC) (F) (DEG/KT/KT) (MB) (FT/S) (FT/S/D) Winyah Bay 1845 81 200/ 9 1019.0S Lake Murray NOT AVBL ACE Basin NERRS 1845 84 150/ 3 1018.0F Fort Pulaski 1900 81 79 170/ 8/ 13 1018.9 Sapelo Island 1900 83 160/ 13 1018.0 $$ ANZ835-935-AMZ111-154-330-350-352-354-370-450-454-472-232000- ...C-MAN and Buoy Observations... STATION/POSITION TIME TEMP WIND PRES WAVE SWELL AIR SEA DIR/SP/G HT/PER HT/PER/DIR (UTC) (F) (DEG/KT/KT) (MB) (FT/S) (FT/S/D) Buoy 41004 1900 75 220/ 10/ 10 1019.0 Buoy 41008 1850 76 77 170/ 12/ 16 1018.5F 3/ 7 2/130/ 7 Folly Beach CMAN 1900 79 190/ 14/ 16 1019.3F Capers Nearshore 1908 78 77 220/ 16/ 19 1019.0F Fripp Nearshore 1908 77 79 180/ 12/ 17 1018.3F STATION/POSITION TIME TEMP WIND PRES WAVE SWELL AIR SEA DIR/SP/G HT/PER HT/PER/DIR (UTC) (F) (DEG/KT/KT) (MB) (FT/S) (FT/S/D) 5E St. Marys GA 1900 78 N/A 3/ 8 Frying Pan Buoy 1910 76 76 210/ 17/ 19 1018.8 Buoy 41025 1910 76 74 230/ 17/ 21 1017.5 Cape Lookout NC 1900 210/ 16/ 20 1017.9F Buoy 41002 1910 78 220/ 8/ 10 1020.7 Buoy 41010 1910 78 80 120/ 8/ 10 1020.1 St Augustine FL 1900 77 80 120/ 12/ 13 1019.2F $$